Regional Weather Roundup
Issued by NWS Lake Charles, LA

Home | Current Version | Previous Version | Text Only | Print | Product List | Glossary On
Versions: 1 2 3 4 5 6 7 8 9 10 11 12 13 14 15 16 17 18 19 20 21 22 23 24 25 26 27 28 29 30 31 32 33 34 35 36 37 38 39 40 41 42 43 44 45 46 47 48 49 50
000
ASUS44 KLCH 310510
RWRLCH
RWRLCH
REGIONAL WEATHER ROUNDUP
NATIONAL WEATHER SERVICE LAKE CHARLES LA
1200 AM CDT THU JUL 31 2014

Note: "fair" indicates few or no clouds below 12,000 feet with no
significant weather and/or obstructions to visibility.


ACROSS SOUTHEAST TEXAS

CITY           SKY/WX    TMP DP  RH WIND       PRES   REMARKS
BEAUMONT       CLEAR     78  72  81 SE3       29.99R
BEAUMONT CITY    N/A     74  73  95 CALM      30.00R
ORANGE         PTCLDY    78  71  77 E6        30.01S
JASPER         PTCLDY    76  65  70 E3        30.03S
$$

ACROSS CENTRAL LOUISIANA

CITY           SKY/WX    TMP DP  RH WIND       PRES   REMARKS
LEESVILLE      PTCLDY    75  64  68 E6        30.02R
FULLERTON        N/A     76  65  68 CALM      30.00S
ALEXANDRIA INT PTCLDY    76  64  66 E6        30.01S
ESLER FIELD    PTCLDY    71  66  84 CALM      30.04R
DERIDDER         N/A     75  64  68 CALM      30.03S
OAKDALE        PTCLDY    69  67  93 CALM      30.02S
OPELOUSAS        N/A     72  64  74 NE3       30.03R
$$

ACROSS SOUTHWEST AND SOUTH CENTRAL LOUISIANA

CITY           SKY/WX    TMP DP  RH WIND       PRES   REMARKS
SULPHUR        CLEAR     77  65  66 E7        30.01S
LAKE CHARLES   CLEAR     76  66  71 E6        30.01R
CHENNAULT INT  CLEAR     74  65  74 E6        30.02R
CAMERON PHI    CLEAR     79  68  69 E10       30.01R
DEQUINCY         N/A     75  65  72 SE3       30.01S
JENNINGS         N/A     73  67  81 E5        30.02R
LAFAYETTE      CLEAR     74  67  78 NE5       30.02S
NEW IBERIA     CLEAR     76  66  71 E6        30.02F
ABBEVILLE        N/A     72  67  84 CALM      30.02S
PATTERSON      CLEAR     73  68  83 NE5       30.06S
SALT POINT       N/A     77  70  79 CALM      30.01S
$$

SELECTED SITES ACROSS THE REGION

CITY           SKY/WX    TMP DP  RH WIND       PRES   REMARKS
HOUSTON BUSH   PTCLDY    80  74  81 CALM      29.98R
HOUSTON HOBBY  PTCLDY    81  74  79 SE6       29.98R
GALVESTON      PTCLDY    84  75  74 SE13      29.99S
COLLEGE STAT   PTCLDY    82  73  74 S17       29.97R
CONROE         CLEAR     78  73  84 SE6       29.99S
HUNTSVILLE     CLEAR     81  72  74 VRB3      29.99R
LUFKIN         CLEAR     78  70  76 SE5       29.99S
SHREVEPORT     MOCLDY    76  64  66 E9        30.01R
MONROE         CLOUDY    73  64  73 E3        30.05S
NATCHEZ MS     MOCLDY    72  63  73 NE3       30.06R
BATON ROUGE    CLEAR     72  64  76 NE5       30.03S
N.O. INTL ARPT PTCLDY    79  60  52 E5        30.02S
SLIDELL        CLEAR     69  65  86 N3        30.02S
$$

MARINE REPORTS

STATION/POSITION TIME  TEMP    WIND        PRES    VSBY  WAVE
                       AIR SEA DIR/SP/G                  HT/PER
                 (UTC) (F)     (DEG/KT/KT) (MB)    (MI)  (FT/S)
BUOY 30 S HIGH I NOT AVBL
SEA RIM ST PARK  0400   83     150/ 10/ 14 1015.9R
PORT ARTHUR      0500      87  140/  6/  8 1015.6R
SABINE PASS N    0500   83 86  170/  9/ 12 1015.5S
TEXAS POINT      0500   83 87  150/ 13/ 15 1015.6R
CALCASIEU PASS   0500   80 87   90/  9/ 11 1016.9S
LK CHARLES BEACH 0500   79 85              1016.8R
MARSH ISLAND     0400   83      70/ 10/ 12   N/A
FRESH WATER LOCK 0500   77 87   40/  5/  5 1016.3S
AMERADA PASS     0500   77 86   90/  5/  7 1016.5S
$$


USA.gov is the U.S. government's official web portal to all federal, state and local government web resources and services.